"TOA5","AWS1","CR1000","7964","CR1000.Std.14","CPU:AWS1_114.CR1","64363","TBL110"
"TIMESTAMP","RECORD","Wind_spd_WVc(1)","Wind_spd_WVc(2)","Air_Temp_Avg","Humidity_Avg","SW_upper_Wm2_Avg","Rain_Tot","Press_Avg","Issui_Tot","Depth_cm","SR50A_Raw","Quality","Ground_Temp_Avg(1)","Ground_Temp_Avg(2)","SW_lower_Wm2_Avg","Albedo_Avg","SWC_per(1)","SWC_per(2)","Period(1)","Period(2)"
"TS","RN","","","","","","","","","","","","","","","","","","",""
"","","WVc","WVc","Avg","Avg","Avg","Tot","Avg","Tot","Smp","Smp","Smp","Avg","Avg","Avg","Avg","Smp","Smp","Smp","Smp"
"2017-02-18 00:00:00",275677,0,0,-2.692,93.1,0,0,862.2389,0,96.6,2.225,189,0.999,1.643,0.05308982,0,52.55,60.33,33.92,35.75
"2017-02-18 00:10:00",275678,0,0,-2.778,97.6,0,0,862.2726,0,96.6,2.226,186,0.998,1.656,0.1896065,0,52.55,60.33,33.92,35.75
"2017-02-18 00:20:00",275679,0,0,-2.844,99.7,0,0,862.1061,0,96.6,2.226,189,0.986,1.662,0.1137639,0,52.55,60.38,33.92,35.77
"2017-02-18 00:30:00",275680,0,0,-2.941,96.8,0,0,862.1293,0,96.6,2.226,190,0.963,1.677,0.01137639,0,52.55,60.38,33.92,35.77
"2017-02-18 00:40:00",275681,0,0,-3.069,93.5,0,0,862.0344,0,96.5,2.228,189,0.94,1.678,0.1441009,0,52.55,60.38,33.92,35.77
"2017-02-18 00:50:00",275682,0,0,-3.232,93,0,0,861.9902,0,96.5,2.228,190,0.945,1.702,0.1213482,0,52.6,60.38,33.94,35.77
"2017-02-18 01:00:00",275683,0,0,-3.315,91.7,0,0,861.9838,0,96.4,2.23,189,0.946,1.706,0.1744411,0,52.6,60.38,33.94,35.77
"2017-02-18 01:10:00",275684,0,0,-3.51,94,0,0,861.7963,0.5,96.5,2.23,186,0.97,1.72,0.1441065,0,52.6,60.38,33.94,35.77
"2017-02-18 01:20:00",275685,0,0,-3.792,94.8,0,0,861.6277,0,96.4,2.232,189,0.999,1.68,0.121353,0,52.6,60.38,33.94,35.77
"2017-02-18 01:30:00",275686,0,0,-3.87,94.8,0,0,861.5227,0,96.5,2.231,190,1.038,1.677,0.2010047,0,52.6,60.38,33.94,35.77
"2017-02-18 01:40:00",275687,0,0,-3.891,90.4,0,0,861.5343,0,96.4,2.232,189,1.062,1.685,0.2237728,0,52.6,60.38,33.94,35.77
"2017-02-18 01:50:00",275688,0,0,-3.959,90.7,0,0,861.5504,0,96.4,2.232,190,1.073,1.685,0.1858507,0,52.6,60.44,33.94,35.78
"2017-02-18 02:00:00",275689,0,0,-4.135,90.4,0,0,861.5633,0,96.3,2.235,189,1.072,1.689,0.2124068,0,52.6,60.44,33.94,35.78
"2017-02-18 02:10:00",275690,0,0,-4.393,93.2,0,0,861.6799,0,96.2,2.235,190,1.068,1.702,0.3034551,0,52.6,60.44,33.94,35.78
"2017-02-18 02:20:00",275691,0,0,-4.59,92.8,0,0,861.648,0,96.2,2.238,189,1.043,1.73,0.2996712,0,52.6,60.44,33.94,35.78
"2017-02-18 02:30:00",275692,0,0,-4.668,93.3,0,0,861.6055,0,96.1,2.238,189,1.029,1.753,0.4400335,0,52.6,60.44,33.94,35.78
"2017-02-18 02:40:00",275693,0,0,-4.892,93.6,0,0,861.6026,0,96.2,2.239,189,1.03,1.757,0.2579523,0,52.6,60.44,33.94,35.78
"2017-02-18 02:50:00",275694,0,0,-5.116,95.4,0,0,861.4454,0,96.3,2.238,190,1.034,1.74,0.2807134,0,52.6,60.38,33.94,35.77
"2017-02-18 03:00:00",275695,0,0,-4.993,97.3,0,0,861.4414,0,96.3,2.237,190,1.061,1.689,0.4590046,0,52.6,60.44,33.94,35.78
"2017-02-18 03:10:00",275696,0,0,-4.941,94.1,0,0,861.3571,0,96.3,2.237,190,1.057,1.676,0.5348732,0,52.6,60.44,33.94,35.78
"2017-02-18 03:20:00",275697,0,0,-4.685,88.7,0,0,861.3445,0,96.3,2.235,189,1.06,1.677,0.7776526,0,52.6,60.44,33.94,35.78
"2017-02-18 03:30:00",275698,0,0,-4.345,81.9,0,0,861.1884,0,96,2.238,190,1.048,1.679,0.9635305,0,52.66,60.44,33.95,35.78
"2017-02-18 03:40:00",275699,0,0,-4.828,84.8,0,0,861.1273,0,96.1,2.24,189,1.021,1.681,0.2693333,0,52.66,60.44,33.95,35.78
"2017-02-18 03:50:00",275700,0,0,-4.759,84.7,0,0,861.0514,0,96.1,2.24,189,0.993,1.68,0.4779718,0,52.66,60.5,33.95,35.79
"2017-02-18 04:00:00",275701,0,0,-4.997,85.9,0,0,860.967,0,96,2.241,189,0.991,1.706,0.3224413,0,52.6,60.44,33.94,35.78
"2017-02-18 04:10:00",275702,0,0,-4.877,83.8,0,0,860.9586,0,95.8,2.241,189,0.985,1.713,0.5462534,0,52.66,60.44,33.95,35.78
"2017-02-18 04:20:00",275703,0,0,-5.093,84.5,0,0,860.8574,0,95.9,2.244,189,0.989,1.718,0.257953,0,52.6,60.44,33.94,35.78
"2017-02-18 04:30:00",275704,0,0,-5.944,92.2,0,0,860.8173,0,96.1,2.244,189,0.986,1.718,0.09104225,0,52.66,60.5,33.95,35.79
"2017-02-18 04:40:00",275705,0,0,-6.185,95.9,0,0,860.733,0,96.1,2.246,189,1.004,1.718,0.1479437,0,52.6,60.44,33.94,35.78
"2017-02-18 04:50:00",275706,0,0,-6.544,99.7,0,0,860.6613,0,96,2.247,189,1.024,1.718,0.1782911,0,52.6,60.5,33.94,35.79
"2017-02-18 05:00:00",275707,0,0,-6.575,100,0,0,860.851,0,96.1,2.246,189,1.026,1.718,0.3186479,0,52.6,60.44,33.94,35.78
"2017-02-18 05:10:00",275708,0,0,-6.808,100,0,0,860.8574,0,96,2.249,190,1.026,1.718,0.2920939,0,52.6,60.44,33.94,35.78
"2017-02-18 05:20:00",275709,0,0,-7.039,100,0,0,860.8658,0,96.1,2.248,190,1.028,1.718,0.1213897,0,52.66,60.44,33.95,35.78
"2017-02-18 05:30:00",275710,0,0,-6.815,100,0,0,860.8953,0,96.1,2.248,189,1.027,1.72,0.5197001,0,52.6,60.44,33.94,35.78
"2017-02-18 05:40:00",275711,0,0,-6.71,100,0,0,860.8586,0,96,2.247,189,1.033,1.725,0.5728224,0,52.66,60.44,33.95,35.78
"2017-02-18 05:50:00",275712,0,0,-6.526,100,0.003934471,0,860.8826,0,96.2,2.245,189,1.037,1.732,0.6828434,0.048,52.66,60.5,33.95,35.79
"2017-02-18 06:00:00",275713,0,0,-6.208,100,0.08262399,0,860.9306,0,96,2.246,189,1.038,1.733,0.6562924,1.109,52.6,60.5,33.94,35.79
"2017-02-18 06:10:00",275714,0,0,-6.375,100,0,0,860.8973,0,96,2.247,189,1.041,1.733,0.1403647,0,52.66,60.5,33.95,35.79
"2017-02-18 06:20:00",275715,0,0,-6.698,100,0,0,860.8724,0,96.1,2.246,189,1.044,1.736,0.166923,0,52.6,60.5,33.94,35.79
"2017-02-18 06:30:00",275716,0,0,-6.191,100,0,0,860.8556,0,95.9,2.246,189,1.048,1.74,0.7208101,0,52.66,60.5,33.95,35.79
"2017-02-18 06:40:00",275717,0,0,-6.158,100,0,0,860.9158,0,95.9,2.246,189,1.052,1.745,1.536497,0,52.66,60.5,33.95,35.79
"2017-02-18 06:50:00",275718,0,0,-6.227,100,0.6296065,0,861.107,0,95.8,2.248,191,1.069,1.763,4.090011,3.501,52.66,60.5,33.95,35.79
"2017-02-18 07:00:00",275719,0,0,-6.326,100,4.588453,0,861.2452,0,95.8,2.248,190,1.084,1.781,8.347427,2.088,52.66,60.5,33.95,35.79
"2017-02-18 07:10:00",275720,0,0,-6.55,100,12.25797,0,861.498,0,95.8,2.249,189,1.082,1.779,14.08797,1.171,52.66,60.5,33.95,35.79
"2017-02-18 07:20:00",275721,0,0,-6.378,99.4,27.24336,0,861.6601,0,96,2.246,190,1.084,1.78,25.92249,0.97,52.66,60.5,33.95,35.79
"2017-02-18 07:30:00",275722,0,0,-5.892,98.1,51.40277,0,861.6712,0,96.2,2.241,189,1.09,1.783,46.18885,0.901,52.66,60.5,33.95,35.79
"2017-02-18 07:40:00",275723,0,0,-5.408,94.4,67.06382,0,861.6763,0,95.9,2.243,189,1.093,1.793,56.27639,0.84,52.66,60.56,33.95,35.81
"2017-02-18 07:50:00",275724,0,0,-5.123,90.4,72.82701,0,861.7792,0,95.9,2.241,189,1.066,1.798,59.14265,0.812,52.66,60.5,33.95,35.79
"2017-02-18 08:00:00",275725,0,0,-4.559,78.68,74.19798,0,861.6383,0,95.8,2.24,189,1.056,1.789,62.88198,0.847,52.66,60.56,33.95,35.81
"2017-02-18 08:10:00",275726,0,0,-4.326,77.24,86.82157,0,861.6212,0,95.9,2.239,189,1.029,1.742,73.7341,0.849,52.66,60.56,33.95,35.81
"2017-02-18 08:20:00",275727,0,0,-4.119,72.85,97.68098,0,861.5791,0,95.6,2.242,189,1.006,1.697,85.17674,0.872,52.66,60.56,33.95,35.81
"2017-02-18 08:30:00",275728,0,0,-4.169,72.84,106.9889,0,861.3958,0,95.8,2.238,189,1.01,1.684,90.75281,0.848,52.66,60.62,33.95,35.82
"2017-02-18 08:40:00",275729,0,0,-3.634,66.64,112.1211,0,861.391,0,95.7,2.238,189,1.03,1.678,96.60814,0.862,52.66,60.56,33.95,35.81
"2017-02-18 08:50:00",275730,0,0,-3.35,65.57,115.7361,0,861.6249,0,95.7,2.236,189,1.028,1.691,99.59673,0.861,52.66,60.56,33.95,35.81
"2017-02-18 09:00:00",275731,0,0,-3.1,64.74,132.1301,0,861.5807,0,95.6,2.236,189,1.03,1.711,114.9979,0.87,52.66,60.56,33.95,35.81
"2017-02-18 09:10:00",275732,0,0,-2.947,64.41,136.2611,0,861.4626,0,95.6,2.236,189,1.062,1.719,117.6456,0.865,52.66,60.56,33.95,35.81
"2017-02-18 09:20:00",275733,0,0,-2.784,65.44,136.6781,0,861.3551,0,95.6,2.235,189,1.076,1.719,113.0935,0.828,52.66,60.56,33.95,35.81
"2017-02-18 09:30:00",275734,0,0,-2.75,65.19,156.2553,0,861.3635,0,95.6,2.235,189,1.05,1.72,130.1526,0.835,52.66,60.56,33.95,35.81
"2017-02-18 09:40:00",275735,0,0,-2.619,65.55,196.3892,0,861.5529,0,95.6,2.234,189,1.037,1.712,164.5779,0.838,52.66,60.56,33.95,35.81
"2017-02-18 09:50:00",275736,0,0,-2.622,65.2,196.2588,0,861.5429,0,95.5,2.236,189,1.028,1.732,162.8519,0.83,52.66,60.56,33.95,35.81
"2017-02-18 10:00:00",275737,0,0,-2.833,64.43,192.744,0,861.5009,0,95.6,2.236,189,1.031,1.696,156.2673,0.811,52.66,60.56,33.95,35.81
"2017-02-18 10:10:00",275738,0,0,-2.992,65.41,167.4726,0,861.3591,0,95.6,2.236,189,1.051,1.677,137.8094,0.823,52.66,60.56,33.95,35.81
"2017-02-18 10:20:00",275739,0,0,-3.045,62.79,179.4512,0,861.2987,0,95.7,2.236,189,1.039,1.681,143.7597,0.801,52.66,60.56,33.95,35.81
"2017-02-18 10:30:00",275740,0,0,-2.748,64.41,228.0534,0,861.2657,0,95.5,2.236,189,1.03,1.702,178.6846,0.783,52.66,60.56,33.95,35.81
"2017-02-18 10:40:00",275741,0,0,-2.527,63.2,245.2182,0,861.1473,0,95.4,2.235,189,1.027,1.718,196.991,0.804,52.66,60.56,33.95,35.81
"2017-02-18 10:50:00",275742,0,0,-2.51,64.22,213.604,0,861.0103,0,95.6,2.235,189,1.027,1.717,169.9978,0.796,52.66,60.56,33.95,35.81
"2017-02-18 11:00:00",275743,0,0,-2.648,62.3,217.7254,0,860.9576,0,95.5,2.236,189,1.019,1.717,171.924,0.79,52.72,60.56,33.96,35.81
"2017-02-18 11:10:00",275744,0,0,-2.634,60.61,255.8949,0,860.8438,0,95.5,2.236,189,1.024,1.717,195.4466,0.764,52.66,60.62,33.95,35.82
"2017-02-18 11:20:00",275745,0,0,-2.562,60.49,257.4327,0,860.6035,0,95.5,2.235,190,1.017,1.717,193.6112,0.752,52.72,60.56,33.96,35.81
"2017-02-18 11:30:00",275746,0,0,-2.335,60.18,269.6171,0,860.4686,0,95.3,2.237,180,1.028,1.717,200.7177,0.745,52.66,60.62,33.95,35.82
"2017-02-18 11:40:00",275747,0,0,-2.448,60.56,286.2693,0,860.2874,0,95.3,2.236,172,1.042,1.717,208.1768,0.728,52.72,60.62,33.96,35.82
"2017-02-18 11:50:00",275748,0,0,-2.227,59.9,310.3784,0,860.0168,0,95.5,2.234,174,1.061,1.716,215.8028,0.696,52.66,60.62,33.95,35.82
"2017-02-18 12:00:00",275749,0,0,-1.797,59.19,365.6325,0,859.954,0,95.4,2.233,173,1.046,1.701,252.9059,0.692,52.72,60.62,33.96,35.82
"2017-02-18 12:10:00",275750,0,0,-1.76,55.86,433.1472,0,859.8037,0,95.4,2.232,172,1.017,1.711,272.486,0.63,52.66,60.62,33.95,35.82
"2017-02-18 12:20:00",275751,0.467,141.4,-1.7,56.37,469.1017,0,859.5158,0,95.5,2.232,173,1.022,1.712,288.6905,0.616,52.72,60.62,33.96,35.82
"2017-02-18 12:30:00",275752,0.802,307.1,-1.716,52.69,486.4928,0,859.4152,0,95.2,2.235,172,1.053,1.687,297.0905,0.611,52.66,60.62,33.95,35.82
"2017-02-18 12:40:00",275753,0.726,194.6,-1.109,53.62,742.4234,0,859.211,0,94.9,2.233,172,1.035,1.718,451.7822,0.608,52.72,60.62,33.96,35.82
"2017-02-18 12:50:00",275754,1.106,291,-1.021,49.9,921.8397,0,859.0688,0,95.1,2.232,173,1.01,1.718,565.8672,0.614,52.72,60.62,33.96,35.82
"2017-02-18 13:00:00",275755,0.601,343.9,-0.47,49.76,817.1432,0,858.8757,0,95.1,2.229,173,0.959,1.668,506.9864,0.616,52.72,60.62,33.96,35.82
"2017-02-18 13:10:00",275756,1.348,337.8,-0.074,47.88,820.9474,0,858.7518,0,95,2.231,173,0.975,1.659,511.4511,0.62,52.66,60.62,33.95,35.82
"2017-02-18 13:20:00",275757,0.945,325.9,-0.3,47.71,852.9752,0,858.6329,0,94.7,2.233,173,0.988,1.614,539.5958,0.633,52.66,60.62,33.95,35.82
"2017-02-18 13:30:00",275758,0.588,257.3,-0.124,45.77,813.9607,0,858.3998,0,95.2,2.229,172,0.949,1.55,514.8234,0.633,52.66,60.62,33.95,35.82
"2017-02-18 13:40:00",275759,0.822,286.4,-0.307,48.72,775.5672,0,858.2273,0,95.3,2.228,173,0.946,1.518,484.853,0.625,52.66,60.62,33.95,35.82
"2017-02-18 13:50:00",275760,0.781,284.2,-0.851,50.07,683.386,0,858.2421,0,95.1,2.235,173,0.925,1.506,401.5047,0.588,52.66,60.62,33.95,35.82
"2017-02-18 14:00:00",275761,0.889,295.4,-1.436,51.07,684.118,0,858.1205,0,95.3,2.233,173,0.881,1.481,337.7841,0.494,52.66,60.62,33.95,35.82
"2017-02-18 14:10:00",275762,0.554,350.3,-1.042,52.82,655.4548,0,857.9665,0,95.3,2.231,172,0.822,1.477,232.7261,0.365,52.66,60.68,33.95,35.83
"2017-02-18 14:20:00",275763,0.639,261.3,-1.335,55.05,221.5198,0,857.9243,0,95.5,2.233,169,0.814,1.481,93.65492,0.481,52.72,60.68,33.96,35.83
"2017-02-18 14:30:00",275764,0.666,326,-2.108,55.08,105.4728,0,857.9559,0,95.4,2.235,173,0.809,1.502,63.2995,0.6,52.66,60.68,33.95,35.83
"2017-02-18 14:40:00",275765,0.26,84,-2.257,56.36,97.84904,0,857.8527,0,95.5,2.234,168,0.817,1.49,58.81558,0.601,52.72,60.68,33.96,35.83
"2017-02-18 14:50:00",275766,0.272,266,-2.104,58.02,118.8108,0,857.7261,0,95.4,2.234,168,0.774,1.492,71.52184,0.602,52.66,60.62,33.95,35.82
"2017-02-18 15:00:00",275767,0.501,275.6,-2.255,57.38,107.7618,0,857.981,0,95.4,2.235,168,0.775,1.518,64.19724,0.595,52.66,60.68,33.95,35.83
"2017-02-18 15:10:00",275768,0.282,278.5,-2.213,58.78,114.7435,0,857.967,0,95.5,2.234,173,0.844,1.579,68.47597,0.596,52.66,60.68,33.95,35.83
"2017-02-18 15:20:00",275769,0.356,303.1,-2.171,58.86,106.3662,0,857.8082,0,95.5,2.234,170,0.905,1.607,64.30813,0.605,52.66,60.68,33.95,35.83
"2017-02-18 15:30:00",275770,0.392,296.8,-2.118,57.4,101.7134,0,857.7869,0,95.3,2.236,169,0.928,1.618,60.23714,0.592,52.66,60.68,33.95,35.83
"2017-02-18 15:40:00",275771,0.069,102.2,-2.144,57.39,68.15464,0,857.5915,0,95.4,2.235,168,0.933,1.61,40.97227,0.602,52.72,60.68,33.96,35.83
"2017-02-18 15:50:00",275772,0.111,291.5,-2.11,58.28,80.78264,0,857.5494,0,95.3,2.236,168,0.939,1.61,47.48122,0.588,52.66,60.68,33.95,35.83
"2017-02-18 16:00:00",275773,0.269,16.86,-2.126,56.63,90.24767,0,857.5051,0,95.3,2.235,170,0.952,1.62,52.54156,0.582,52.66,60.68,33.95,35.83
"2017-02-18 16:10:00",275774,0.163,196.9,-1.92,56.19,82.48151,0,857.3733,0,95.1,2.236,168,0.942,1.642,48.15037,0.584,52.66,60.68,33.95,35.83
"2017-02-18 16:20:00",275775,0.082,274.4,-1.938,57.03,61.10332,0,857.4052,0,95.2,2.236,168,0.92,1.643,36.22783,0.593,52.66,60.68,33.95,35.83
"2017-02-18 16:30:00",275776,0.037,25.8,-1.855,57.65,51.80255,0,857.6182,0,95.3,2.235,168,0.904,1.626,30.59551,0.59,52.72,60.68,33.96,35.83
"2017-02-18 16:40:00",275777,0.055,47.51,-1.915,60.89,45.41014,0,857.6371,0,95.2,2.236,169,0.903,1.627,26.8959,0.592,52.72,60.68,33.96,35.83
"2017-02-18 16:50:00",275778,0.291,22.01,-2.041,59.87,39.46171,0,857.623,0,95.3,2.236,168,0.923,1.628,22.48343,0.572,52.66,60.68,33.95,35.83
"2017-02-18 17:00:00",275779,0.177,22.79,-2.162,64.19,35.71883,0,857.5746,0,95.3,2.237,173,0.931,1.628,20.80411,0.584,52.72,60.68,33.96,35.83
"2017-02-18 17:10:00",275780,0.211,338.5,-2.533,67.05,15.24685,0,857.444,0,95.3,2.238,174,0.937,1.628,9.784148,0.644,52.66,60.68,33.95,35.83
"2017-02-18 17:20:00",275781,0.093,104.7,-2.588,70.02,8.382285,0,857.5451,0,95.3,2.238,174,0.939,1.63,5.720413,0.7,52.66,60.68,33.95,35.83
"2017-02-18 17:30:00",275782,0.082,78.59,-2.667,69.63,3.923929,0,857.5087,0,95.3,2.238,174,0.949,1.64,3.006263,0.782,52.66,60.68,33.95,35.83
"2017-02-18 17:40:00",275783,0.434,156.8,-2.694,71.22,0.743147,0,857.4153,0,95.3,2.238,173,0.963,1.655,1.15632,1.343,52.66,60.68,33.95,35.83
"2017-02-18 17:50:00",275784,0.726,156.6,-2.796,70.12,0,0,857.3318,0,95.3,2.239,172,0.979,1.668,0.1971505,0,52.66,60.68,33.95,35.83
"2017-02-18 18:00:00",275785,0.576,150.7,-2.823,69.71,0,0,857.3767,0,95.3,2.239,172,1.003,1.673,0,0,52.66,60.68,33.95,35.83
"2017-02-18 18:10:00",275786,0.479,148.4,-2.806,70.9,0,0,857.3556,0,95.2,2.24,169,1.017,1.681,0,0,52.72,60.68,33.96,35.83
"2017-02-18 18:20:00",275787,0.705,155.9,-2.84,71.98,0,0,857.3403,0,95.3,2.239,172,1.022,1.653,0,0,52.66,60.68,33.95,35.83
"2017-02-18 18:30:00",275788,0.813,142,-2.83,72.85,0,0,857.4686,0,95.2,2.239,173,1.016,1.679,0.0492976,0,52.72,60.68,33.96,35.83
"2017-02-18 18:40:00",275789,0.606,90.8,-2.75,73.94,0,0,857.4734,0,95.3,2.239,173,0.992,1.669,0,0,52.66,60.68,33.95,35.83
"2017-02-18 18:50:00",275790,0.362,49.42,-2.755,74.13,0,0,857.4735,0,95.2,2.239,173,0.972,1.648,0,0,52.72,60.68,33.96,35.83
"2017-02-18 19:00:00",275791,0.203,42.71,-2.729,74.5,0,0,857.4672,0,95.2,2.239,174,0.955,1.646,0,0,52.66,60.68,33.95,35.83
"2017-02-18 19:10:00",275792,0.289,104.7,-2.756,74.6,0,0,857.4587,0,95.2,2.239,173,0.948,1.636,0,0,52.72,60.68,33.96,35.83
"2017-02-18 19:20:00",275793,0.356,32.58,-2.789,75.34,0,0,857.3744,0,95.2,2.24,172,0.95,1.633,0,0,52.66,60.68,33.95,35.83
"2017-02-18 19:30:00",275794,0.435,88.5,-2.888,75.78,0,0,857.2269,0,95.1,2.241,189,0.949,1.63,0.007584261,0,52.66,60.68,33.95,35.83
"2017-02-18 19:40:00",275795,0.093,47.16,-3.02,80.3,0,0,857.2247,0,95.1,2.242,189,0.956,1.63,0,0,52.66,60.68,33.95,35.83
"2017-02-18 19:50:00",275796,0.207,15.9,-3.356,85.5,0,0,857.2206,0,95.1,2.244,192,0.966,1.63,0,0,52.66,60.68,33.95,35.83
"2017-02-18 20:00:00",275797,0.091,273.4,-3.695,90.4,0,0,857.2164,0,94.8,2.247,170,0.967,1.63,0,0,52.66,60.68,33.95,35.83
"2017-02-18 20:10:00",275798,0.078,295,-3.8,93.4,0,0,857.2121,0,95,2.246,187,0.979,1.63,0,0,52.72,60.68,33.96,35.83
"2017-02-18 20:20:00",275799,0.017,75.17,-3.88,98.4,0,0,857.2206,0,95,2.246,195,0.996,1.63,0,0,52.66,60.68,33.95,35.83
"2017-02-18 20:30:00",275800,0.003,313.7,-3.984,100,0,0,857.1236,0,94.8,2.248,201,0.994,1.63,0,0,52.72,60.68,33.96,35.83
"2017-02-18 20:40:00",275801,0.02,23.31,-3.962,100,0,0,857.1299,0.5,97.1,2.225,335,0.999,1.63,0,0,52.66,60.68,33.95,35.83
"2017-02-18 20:50:00",275802,0.227,281.1,-4.184,100,0.1848495,0,857.2164,0.5,96.5,2.234,242,1.009,1.63,0,0,52.66,60.68,33.95,35.83
"2017-02-18 21:00:00",275803,0.187,276.4,-4.838,100,0.3696991,0,857.2247,0.5,98.2,2.219,206,1.006,1.63,0,0,52.66,60.68,33.95,35.83
"2017-02-18 21:10:00",275804,0.367,253.2,-5.188,100,0.3539726,0,857.4398,0.5,99.6,2.206,217,1.006,1.634,0,0,52.66,60.68,33.95,35.83
"2017-02-18 21:20:00",275805,0.137,296.2,-5.419,100,0.2320562,0,857.5894,0.5,99.9,2.204,198,0.977,1.645,0,0,52.72,60.74,33.96,35.85
"2017-02-18 21:30:00",275806,0.3,283.6,-5.833,100,0.3697378,0,857.7432,0,100.6,2.198,196,0.971,1.67,0,0,52.72,60.74,33.96,35.85
"2017-02-18 21:40:00",275807,0.147,347.6,-5.934,100,0.2556835,0,857.7327,0.5,101.3,2.191,190,0.98,1.705,0,0,52.66,60.74,33.95,35.85
"2017-02-18 21:50:00",275808,0.143,280.3,-6.115,100,0.236022,0,857.8271,0,101.4,2.191,193,0.988,1.665,0,0,52.66,60.74,33.95,35.85
"2017-02-18 22:00:00",275809,0.312,303.3,-6.269,99.8,0.236027,0,857.9744,0,101.4,2.192,194,0.992,1.651,0,0,52.66,60.68,33.95,35.83
"2017-02-18 22:10:00",275810,0.228,293.6,-6.429,100,0.2163706,0,857.9929,0,100.3,2.203,194,1.01,1.658,0,0,52.66,60.74,33.95,35.85
"2017-02-18 22:20:00",275811,0.342,300.3,-6.525,100,0.1967092,0,857.8719,0,102.2,2.185,196,1.036,1.678,0,0,52.66,60.68,33.95,35.83
"2017-02-18 22:30:00",275812,0.294,301.1,-6.707,100,0.2360558,0,858.0143,0.5,101.5,2.192,209,1.035,1.699,0,0,52.66,60.68,33.95,35.83
"2017-02-18 22:40:00",275813,0.215,310.1,-6.824,100,0.2360579,0,858.0135,0,102,2.187,198,1.022,1.711,0,0,52.66,60.74,33.95,35.85
"2017-02-18 22:50:00",275814,0.631,341.9,-7.092,100,0.3068762,0,858.0616,0,101.6,2.193,199,1.011,1.718,0,0,52.72,60.74,33.96,35.85
"2017-02-18 23:00:00",275815,0.519,275.3,-7.29,100,0.2911392,0,858.067,0,101.4,2.195,190,0.991,1.718,0,0,52.66,60.74,33.95,35.85
"2017-02-18 23:10:00",275816,0.957,332,-7.479,99.9,0.3776941,0,858.2154,0,102.9,2.182,183,0.997,1.718,0,0,52.66,60.74,33.95,35.85
"2017-02-18 23:20:00",275817,1.705,308.9,-7.752,97.7,0.3855627,0,858.3484,0,103,2.182,192,1.019,1.718,0,0,52.72,60.74,33.96,35.85
"2017-02-18 23:30:00",275818,0.948,287.3,-7.863,96.6,0.20065,0,858.5572,0,102.6,2.186,187,1.021,1.718,0.0417277,0.112,52.66,60.74,33.95,35.85
"2017-02-18 23:40:00",275819,1.027,306.1,-8.07,95.2,0.2360588,0,858.5782,0,102.6,2.187,189,1.026,1.721,0,0,52.66,60.74,33.95,35.85
"2017-02-18 23:50:00",275820,0.892,294.7,-8.15,94,0.1691755,0,858.6014,0,102.3,2.19,177,1.026,1.728,0.007586854,0,52.66,60.74,33.95,35.85
